Location: Bh?mavarapp?du
(16.7041°N, 80.6518°E)
Time: 06:41:50
(UTC+00:00)

Cosmos 1892 - Pass Details

Date: 21 April 2021
Orbit: 502 x 524 km, 82.5° (Epoch: 05 May)

Event Time Altitude Azimuth Distance (km) Brightness Sun altitude
Rises 14:25:46 0° 351° (N) 2,604 6.7 -21.8°
Reaches altitude 10° 14:27:54 10° 348° (NNW) 1,721 5.7 -22.3°
Maximum altitude 14:31:38 64° 267° (W) 569 3.0 -23.1°
Enters shadow 14:32:12 54° 221° (SW) 623 3.1 -23.2°
